Погода в Николаеве

Украина / Хмельницкая область     49°34′54″N   26°50′25″E
темп.,
°C
ветер,
м/с
пор.,
м/с
влажн.,
%
обл.,
%
осадки,
мм/ч
давл.,
гПа
погр.,
м
9 мая, вс
вс900:00+3зсз38885 0.0 1022154
03:00+2зсз38911 0.0 1023153
06:00+1зсз38911 0.0 1025148
09:00+7сз35655 0.0 1025525
12:00+11сз354834 0.0 10251842
15:00+14зсз344084 0.0 10242245
18:00+14з234219 0.0 10241965
21:00+10ююв22565 0.0 102512
10 мая, пн
пн1000:00+7юв35675 0.0 102669
03:00+6ююв37695 0.0 1026111
06:00+5юв48705 0.0 1026127
09:00+11ююв69585 0.0 1026463
12:00+16ююв78485 0.0 10251187
15:00+17ююв674751 0.0 10241385
18:00+17юв575571 0.0 10231237
21:00+11вюв4117315 0.0 1024222
11 мая, вт
вт1100:00+9вюв512785 0.0 1024228
03:00+7вюв411760 0.0 1024215
06:00+6вюв410810 0.0 1023199
09:00+12вюв58640 0.0 1023447
12:00+16вюв56440 0.0 10211083
15:00+17вюв56400 0.0 10201374
18:00+17вюв57550 0.0 10181206
21:00+12в511815 0.0 1018284
12 мая, ср
ср1200:00+10в399481 0.0 1018205
03:00+9в399723 0.0 1016211
06:00+8в5109840 0.0 1016339
09:00+10в69710 0.0 1015708
12:00+14в67575 0.0 10131281
15:00+14в7656100 0.1 10121792
18:00+12вюв5662100 0.0 10111078
21:00+10вюв3772100 0.0 1010257
13 мая, чт
чт1300:00+8юв398099 0.0 1010257
03:00+7вюв51182100 0.1 1008359
06:00+7вюв71496100 4.3 1006599
09:00+9юв81490100 4.5 1005764
12:00+13ююв101477100 0.1 10051113
15:00+10ююв81387100 1.6 1005967
18:00+11ююв51192100 0.7 1005608
21:00+10ююз4998100 2.0 1006339